Tracking 19570 objects as of 22-Feb-2019
HD Live streaming from Space Station
objects crossing your sky now

THORAD DELTA 1 DEB

Track THORAD DELTA 1 DEB now!
10-day predictions


NORAD ID: 42606
Int'l Code: 1974-089FX
Perigee: 1,237.3 km
Apogee: 1,528.1 km
Inclination: 102.1 °
Period: 113.2 minutes
Semi major axis: 7753 km
RCS: Unknown
Launch date: November 15, 1974
Source: United States (US)
Launch site: AIR FORCE WESTERN TEST RANGE (AFWTR)

Note: This is SATELLITE DEBRIS
aabbcc
Your satellite tracking list
Your tracking list is empty




NASA's NSSDC Master Catalog

Two Line Element Set (TLE):
1 42606U 74089FX  19045.11688755 -.00000038  00000-0  51783-4 0  9996
2 42606 102.1435 125.4878 0187499 149.6780 326.9698 12.71565545231723
Source of the keplerian elements: AFSPC